Flag for Canada Weather past 2 weeks in Hopedale, Newfoundland and Labrador, Canada

Now
48 °F

Cool.


Feels Like: 45 °F
Forecast: 47 / 54 °F
Wind: 8 mph from North

Location: Hopedale

Current Time: Aug 22, 2014 at 4:52:56 AM

Latest Report: Aug 22, 2014 at 4:00 AM


Visibility: N/A

Pressure: 30.28 "Hg

Humidity: 96%

Dew point: 47 °F

Location of HopedaleLocation

Historic Weather in Hopedale — Graph

°F

Hopedale temperature yesterday

Maximum temperature yesterday: 52 °F (at 5:00 PM)
Minimum temperature yesterday: 51 °F (at 8:00 AM)
Average temperature yesterday: 51 °F

Past Weeks' High & Low Weather Summary

 TemperatureHumidityPressure
High75 °F (Aug 14, 4:00 PM)100% (Aug 7, 8:00 AM)30.31 "Hg (Aug 7, 8:00 AM)
Low46 °F (Aug 7, 10:00 AM)41% (Aug 14, 3:00 PM)29.81 "Hg (Aug 17, 7:00 PM)
Average57 °F84%30.05 "Hg
* Reported Aug 7 3:00 AM — Aug 22 3:00 AM, Hopedale, Weather by CustomWeather, © 2014

Note: Actual official high and low records may vary slightly from our data, if they occured in-between our weather recording intervals... More about our weather records

Advertising

Hopedale weather history for previous 24 hours

 ConditionsComfort  
Time TempWeatherWind HumidityBarometerVisibility
3:00 AM
Aug 22
49 °FCool.7 mph89%30.28 "HgN/A
2:00 AM47 °FCool.8 mph100%30.29 "HgN/A
1:00 AM51 °FCool.5 mph96%30.29 "HgN/A
12:00 AM51 °FCool.5 mph94%30.29 "HgN/A
11:00 PM
Aug 21
51 °FCool.8 mph95%30.30 "HgN/A
10:00 PM51 °FCool.6 mph95%30.30 "HgN/A
9:00 PM51 °FCool.7 mph95%30.31 "HgN/A
8:00 PM51 °FCool.8 mph94%30.31 "HgN/A
7:00 PM51 °FCool.9 mph93%30.31 "HgN/A
6:00 PM52 °FCool.10 mph93%30.31 "HgN/A
5:00 PM52 °FCool.12 mph94%30.31 "HgN/A
4:00 PM52 °FCool.13 mph94%30.30 "HgN/A
3:00 PM51 °FCool.14 mph97%30.30 "HgN/A
2:00 PM51 °FCool.15 mph96%30.29 "HgN/A
1:00 PM52 °FCool.13 mph90%30.29 "HgN/A
12:00 PM51 °FCool.15 mph97%30.30 "HgN/A
11:00 AM51 °FCool.13 mph97%30.30 "HgN/A
10:00 AM51 °FCool.15 mph97%30.29 "HgN/A
9:00 AM51 °FCool.14 mph98%30.29 "HgN/A
8:00 AM51 °FCool.14 mph99%30.27 "HgN/A
7:00 AM51 °FCool.16 mph99%30.27 "HgN/A
6:00 AM51 °FCool.13 mph92%30.25 "HgN/A
5:00 AM51 °FCool.13 mph99%30.24 "HgN/A
4:00 AM51 °FCool.14 mph100%30.23 "HgN/A
Weather by CustomWeather, © 2014

See weather overviewHow to use our weather pages